Kingman, Arizona, United States (86401)
Lat: 35.19N, Lon: 114.05W
Wx Zone: AZZ003
Local Info
Past Weather Observations for Wednesday, August 27, 2014

NOTE: This archive is for the closest National Weather Service station to Kingman. Information may differ from the station used for current weather conditions.

Click here for Long-term Archive

Time Weather Temperature Dewpoint Humidity Pressure Winds Precip Visibility
23:51
Clear
68°F / 20°C 41°F / 5°C 38% 30.12 in
(1020 mb)
Calm - 10SM
22:51
Clear
68°F / 20°C 43°F / 6°C 40% 30.12 in
(1020 mb)
SE 6.9 mph
(SE 11 kph)
- 10SM
21:51
Clear
70°F / 21°C 45°F / 7°C 40% 30.12 in
(1020 mb)
ESE 3.5 mph
(ESE 6 kph)
- 10SM
20:51
Clear
72°F / 22°C 45°F / 7°C 38% 30.12 in
(1020 mb)
SSE 3.5 mph
(SSE 6 kph)
- 10SM
19:51
Partly Cloudy
79°F / 26°C 45°F / 7°C 30% 30.12 in
(1020 mb)
SSE 4.6 mph
(SSE 7 kph)
- 10SM
18:51
Mostly Cloudy
86°F / 30°C 39°F / 4°C 19% 30.09 in
(1019 mb)
W 10.4 mph
(W 17 kph)
- 10SM
17:51
Clear
88°F / 31°C 39°F / 4°C 18% 30.09 in
(1019 mb)
SSW 12.7 mph
(SSW 20 kph)
- 10SM
16:51
Partly Cloudy
90°F / 32°C 43°F / 6°C 20% 30.09 in
(1019 mb)
W 13.8 mph
(W 22 kph)
- 10SM
15:51
Clear
90°F / 32°C 48°F / 9°C 24% 30.09 in
(1019 mb)
SW 11.5 mph
(SW 19 kph)
- 10SM
14:51
Clear
90°F / 32°C 48°F / 9°C 24% 30.12 in
(1020 mb)
SW 15 mph
(SW 24 kph)
- 10SM
13:51
Clear
90°F / 32°C 43°F / 6°C 20% 30.12 in
(1020 mb)
SW 13.8 mph
(SW 22 kph)
- 10SM
12:51
Clear
88°F / 31°C 50°F / 10°C 27% 30.15 in
(1021 mb)
SSW 13.8 mph
(SSW 22 kph)
- 10SM
11:51
Clear
86°F / 30°C 54°F / 12°C 33% 30.15 in
(1021 mb)
SSW 6.9 mph
(SSW 11 kph)
- 10SM
10:51
Clear
84°F / 29°C 57°F / 14°C 40% 30.18 in
(1022 mb)
Variable 5.8 mph
(Variable 9 kph)
- 10SM
09:51
Clear
81°F / 27°C 55°F / 13°C 42% 30.18 in
(1022 mb)
Variable 3.5 mph
(Variable 6 kph)
- 10SM
08:51
Partly Cloudy
79°F / 26°C 59°F / 15°C 51% 30.18 in
(1022 mb)
SE 9.2 mph
(SE 15 kph)
- 10SM
07:51
Partly Cloudy
73°F / 23°C 59°F / 15°C 61% 30.15 in
(1021 mb)
SE 13.8 mph
(SE 22 kph)
- 10SM
06:51
Clear
70°F / 21°C 59°F / 15°C 69% 30.15 in
(1021 mb)
SE 12.7 mph
(SE 20 kph)
- 10SM
05:51
Clear
66°F / 19°C 57°F / 14°C 73% 30.12 in
(1020 mb)
SSE 6.9 mph
(SSE 11 kph)
- 10SM
04:51
Clear
66°F / 19°C 57°F / 14°C 73% 30.09 in
(1019 mb)
SE 9.2 mph
(SE 15 kph)
- 10SM
03:51
Clear
66°F / 19°C 57°F / 14°C 73% 30.09 in
(1019 mb)
SE 9.2 mph
(SE 15 kph)
- 10SM
02:51
Clear
66°F / 19°C 57°F / 14°C 73% 30.09 in
(1019 mb)
SE 8.1 mph
(SE 13 kph)
- 10SM
01:51
Clear
68°F / 20°C 57°F / 14°C 69% 30.09 in
(1019 mb)
SE 10.4 mph
(SE 17 kph)
- 10SM
00:51
Clear
70°F / 21°C 59°F / 15°C 69% 30.09 in
(1019 mb)
SE 10.4 mph
(SE 17 kph)
- 10SM
Time Weather Temperature Dewpoint Humidity Pressure Winds Precip Visibility


Weather for websites

WeatherForYou.com, LLC is not responsible for any damages or problems caused by this service. Current weather conditions are obtained from the closest station including government and personal stations which may have varying degrees of accuracy. Weather forecasts are derived from the NOAA NDFD. Like all things, this site belongs to Jesus Christ... He just trusts me to maintain it. If you have any questions or comments email webmaster@weatherforyou.com

Copyright © 2014, WeatherForYou.com LLC. All rights reserved.